Location: Poigny-la-Forêt
(48.6876°N, 1.7701°E)
Time: 02:47:43
(UTC+02:00)

ISS - Pass Details

Date: 27 May 2019
Orbit: 407 x 418 km, 51.6° (Epoch: 27 June)

Event Time Altitude Azimuth Distance (km) Brightness Sun altitude
Rises 01:42:33 0° 289° (WNW) 2,365 0.3 -20.1°
Reaches altitude 10° 01:44:49 10° 277° (W) 1,501 -0.9 -20.1°
Enters shadow 01:45:38 15° 268° (W) 1,221 -1.4 -20.1°
